Location: Ailingen
(47.6833°N, 9.5000°E)
Time: 06:33:08
(UTC+00:00)

Cosmos 540 Rocket - Pass Details

Date: 18 November 2025
Orbit: 735 x 747 km, 74.1° (Epoch: 13 December)

Event Time Altitude Azimuth Distance (km) Brightness Sun altitude
Rises 16:37:36 0° 339° (NNW) 3,200 6.8 -9.4°
Reaches altitude 10° 16:40:00 10° 341° (NNW) 2,271 6.0 -9.8°
Maximum altitude 16:45:07 70° 65° (ENE) 794 3.4 -10.6°
Drops below altitude 10° 16:50:12 10° 150° (SSE) 2,247 5.8 -11.4°
Sets 16:52:33 0° 153° (SSE) 3,164 6.6 -11.8°
